When you browse on this site, cookies collect data to enhance your experience and personalize the content and advertising you see.
Visit our Privacy Policy to learn more. By continuing to use the site, you agree to this use of cookies and data.
  • în România
  • Lista ţărilor
  • Pe 7 zile
  • Temperatura apei
  • Hartă satelitară
  • Meteo pe hartă
  • Widget-uri
  • user-avatar
    Intrare

    Meteo pe oră la San Luis

    Astăzi, 18 Ianuarie, Vineri

    Timp Temperatura Precipitaţii Vânt Presiune Umiditate
    00:00 +11°C° 0 mm 4 m/s 705 mmHg 71%
    01:00 +12°C° 0 mm 4 m/s 704 mmHg 70%
    02:00 +12°C° 0 mm 3 m/s 704 mmHg 68%
    03:00 +11°C° 0 mm 3 m/s 704 mmHg 68%
    04:00 +11°C° 0 mm 3 m/s 704 mmHg 67%
    05:00 +12°C° 0 mm 2 m/s 704 mmHg 67%
    06:00 +13°C° 0 mm 3 m/s 704 mmHg 59%
    07:00 +16°C° 0 mm 3 m/s 704 mmHg 52%
    08:00 +18°C° 0 mm 3 m/s 705 mmHg 44%
    09:00 +20°C° 0 mm 3 m/s 705 mmHg 39%
    10:00 +22°C° 0 mm 3 m/s 705 mmHg 33%
    11:00 +25°C° 0 mm 3 m/s 705 mmHg 27%
    12:00 +26°C° 0 mm 3 m/s 705 mmHg 25%
    13:00 +27°C° 0 mm 3 m/s 704 mmHg 24%
    14:00 +28°C° 0 mm 3 m/s 704 mmHg 22%
    15:00 +28°C° 0 mm 3 m/s 703 mmHg 23%
    16:00 +29°C° 0 mm 4 m/s 702 mmHg 24%
    17:00 +29°C° 0 mm 4 m/s 702 mmHg 25%
    18:00 +27°C° 0 mm 5 m/s 701 mmHg 32%
    19:00 +24°C° 0 mm 6 m/s 701 mmHg 40%
    20:00 +21°C° 0 mm 7 m/s 701 mmHg 48%
    21:00 +21°C° 0 mm 6 m/s 701 mmHg 50%
    22:00 +20°C° 0 mm 6 m/s 701 mmHg 51%
    23:00 +20°C° 0 mm 5 m/s 702 mmHg 53%

    Mâine, 19 Ianuarie, Sâmbătă

    Timp Temperatura Precipitaţii Vânt Presiune Umiditate
    00:00 +20°C° 0 mm 5 m/s 702 mmHg 52%
    01:00 +20°C° 0 mm 5 m/s 701 mmHg 51%
    02:00 +20°C° 0 mm 5 m/s 701 mmHg 50%
    03:00 +19°C° 0 mm 5 m/s 701 mmHg 52%
    04:00 +19°C° 0 mm 6 m/s 701 mmHg 54%
    05:00 +18°C° 0 mm 7 m/s 701 mmHg 56%
    06:00 +20°C° 0 mm 7 m/s 701 mmHg 52%
    07:00 +22°C° 0 mm 8 m/s 702 mmHg 47%
    08:00 +23°C° 0 mm 8 m/s 702 mmHg 43%
    09:00 +26°C° 0 mm 7 m/s 702 mmHg 39%
    10:00 +28°C° 0 mm 7 m/s 702 mmHg 35%
    11:00 +29°C° 0 mm 6 m/s 702 mmHg 31%
    12:00 +30°C° 0 mm 6 m/s 701 mmHg 29%
    13:00 +32°C° 0 mm 6 m/s 701 mmHg 27%
    14:00 +33°C° 0 mm 5 m/s 700 mmHg 24%
    15:00 +33°C° 0 mm 5 m/s 700 mmHg 24%
    16:00 +33°C° 0 mm 5 m/s 699 mmHg 24%
    17:00 +34°C° 0 mm 5 m/s 698 mmHg 23%
    18:00 +30°C° 0 mm 5 m/s 698 mmHg 28%
    19:00 +28°C° 0 mm 4 m/s 698 mmHg 33%
    20:00 +26°C° 0 mm 4 m/s 698 mmHg 38%
    21:00 +25°C° 0 mm 5 m/s 698 mmHg 40%
    22:00 +24°C° 0 mm 6 m/s 698 mmHg 42%
    23:00 +23°C° 0 mm 7 m/s 699 mmHg 44%

    Poimâine, 20 Ianuarie, Duminică

    Timp Temperatura Precipitaţii Vânt Presiune Umiditate
    00:00 +22°C° 0 mm 8 m/s 698 mmHg 47%
    01:00 +22°C° 0 mm 9 m/s 698 mmHg 49%
    02:00 +21°C° 0 mm 10 m/s 697 mmHg 51%
    03:00 +21°C° 0 mm 10 m/s 697 mmHg 53%
    04:00 +21°C° 0 mm 10 m/s 697 mmHg 54%
    05:00 +19°C° 0 mm 9 m/s 696 mmHg 56%
    06:00 +22°C° 0 mm 9 m/s 697 mmHg 50%
    07:00 +23°C° 0 mm 9 m/s 697 mmHg 45%
    08:00 +26°C° 0 mm 9 m/s 698 mmHg 39%
    09:00 +27°C° 0 mm 8 m/s 698 mmHg 35%
    10:00 +29°C° 0 mm 7 m/s 698 mmHg 30%
    11:00 +32°C° 0 mm 6 m/s 698 mmHg 25%
    12:00 +33°C° 0 mm 6 m/s 697 mmHg 24%
    13:00 +34°C° 0 mm 5 m/s 697 mmHg 22%
    14:00 +35°C° 0 mm 5 m/s 696 mmHg 21%
    15:00 +35°C° 0 mm 5 m/s 696 mmHg 22%
    16:00 +35°C° 0 mm 4 m/s 695 mmHg 23%
    17:00 +35°C° 0 mm 4 m/s 695 mmHg 23%
    18:00 +33°C° 0 mm 4 m/s 695 mmHg 29%
    19:00 +30°C° 0 mm 4 m/s 695 mmHg 36%
    20:00 +28°C° 0 mm 4 m/s 695 mmHg 42%
    21:00 +27°C° 0 mm 4 m/s 695 mmHg 44%
    22:00 +26°C° 0 mm 5 m/s 696 mmHg 46%
    23:00 +26°C° 0 mm 6 m/s 696 mmHg 48%

    21 Ianuarie, Luni

    Timp Temperatura Precipitaţii Vânt Presiune Umiditate
    00:00 +24°C° 0 mm 6 m/s 696 mmHg 51%
    01:00 +24°C° 0 mm 6 m/s 696 mmHg 54%
    02:00 +23°C° 0 mm 6 m/s 696 mmHg 58%
    03:00 +23°C° 0 mm 6 m/s 696 mmHg 58%
    04:00 +23°C° 0 mm 5 m/s 696 mmHg 58%
    05:00 +22°C° 0 mm 5 m/s 696 mmHg 58%
    06:00 +25°C° 0 mm 4 m/s 697 mmHg 52%
    07:00 +27°C° 0 mm 3 m/s 698 mmHg 47%
    08:00 +29°C° 0 mm 3 m/s 699 mmHg 41%
    09:00 +30°C° 0 mm 2 m/s 699 mmHg 39%
    10:00 +31°C° 0 mm 2 m/s 699 mmHg 37%
    11:00 +32°C° 0 mm 2 m/s 699 mmHg 35%
    12:00 +34°C° 0 mm 2 m/s 699 mmHg 32%
    13:00 +34°C° 0 mm 1 m/s 698 mmHg 28%
    14:00 +36°C° 0 mm 1 m/s 697 mmHg 25%
    15:00 +36°C° 0 mm 1 m/s 696 mmHg 24%
    16:00 +37°C° 0 mm 2 m/s 696 mmHg 23%
    17:00 +38°C° 0 mm 2 m/s 695 mmHg 21%
    18:00 +36°C° 0 mm 3 m/s 695 mmHg 25%
    19:00 +34°C° 0 mm 3 m/s 694 mmHg 28%
    20:00 +31°C° 0 mm 3 m/s 694 mmHg 31%
    21:00 +30°C° 0 mm 4 m/s 694 mmHg 34%
    22:00 +29°C° 0 mm 4 m/s 695 mmHg 37%
    23:00 +28°C° 0 mm 5 m/s 695 mmHg 40%

    22 Ianuarie, Marţi

    Timp Temperatura Precipitaţii Vânt Presiune Umiditate
    00:00 +28°C° 0 mm 6 m/s 694 mmHg 46%
    01:00 +28°C° 0 mm 8 m/s 694 mmHg 52%
    02:00 +27°C° 0 mm 9 m/s 694 mmHg 57%
    03:00 +27°C° 0 mm 9 m/s 694 mmHg 58%
    04:00 +27°C° 0 mm 8 m/s 694 mmHg 60%
    05:00 +26°C° 0 mm 8 m/s 693 mmHg 61%
    06:00 +28°C° 0 mm 8 m/s 694 mmHg 56%
    07:00 +29°C° 0 mm 8 m/s 695 mmHg 51%
    08:00 +31°C° 0 mm 8 m/s 695 mmHg 46%
    09:00 +33°C° 0 mm 7 m/s 695 mmHg 42%
    10:00 +35°C° 0 mm 6 m/s 696 mmHg 38%
    11:00 +36°C° 0 mm 5 m/s 696 mmHg 34%
    12:00 +37°C° 0 mm 4 m/s 695 mmHg 32%
    13:00 +37°C° 0 mm 3 m/s 695 mmHg 30%
    14:00 +38°C° 0 mm 2 m/s 695 mmHg 29%
    15:00 +37°C° 0 mm 3 m/s 694 mmHg 31%
    16:00 +36°C° 0 mm 5 m/s 694 mmHg 32%
    17:00 +36°C° 0 mm 7 m/s 693 mmHg 34%
    18:00 +34°C° 0.1 mm 6 m/s 693 mmHg 39%
    19:00 +33°C° 0.1 mm 6 m/s 694 mmHg 43%
    20:00 +30°C° 0.1 mm 6 m/s 694 mmHg 47%
    21:00 +29°C° 0.2 mm 6 m/s 695 mmHg 52%
    22:00 +28°C° 0.2 mm 6 m/s 695 mmHg 57%
    23:00 +27°C° 0.2 mm 6 m/s 696 mmHg 62%

    23 Ianuarie, Miercuri

    Timp Temperatura Precipitaţii Vânt Presiune Umiditate
    00:00 +26°C° 0.5 mm 5 m/s 696 mmHg 65%
    01:00 +26°C° 0.5 mm 4 m/s 696 mmHg 69%
    02:00 +25°C° 0.5 mm 4 m/s 695 mmHg 72%
    03:00 +25°C° 0.2 mm 3 m/s 696 mmHg 73%
    04:00 +25°C° 0.2 mm 3 m/s 696 mmHg 73%
    05:00 +25°C° 0.2 mm 3 m/s 696 mmHg 74%
    06:00 +26°C° 0.1 mm 2 m/s 696 mmHg 68%
    07:00 +28°C° 0.1 mm 2 m/s 697 mmHg 63%
    08:00 +29°C° 0.1 mm 2 m/s 698 mmHg 57%
    09:00 +31°C° 0 mm 2 m/s 698 mmHg 51%
    10:00 +32°C° 0 mm 2 m/s 698 mmHg 46%
    11:00 +35°C° 0 mm 2 m/s 698 mmHg 41%
    12:00 +36°C° 0 mm 3 m/s 697 mmHg 40%
    13:00 +36°C° 0 mm 3 m/s 696 mmHg 38%
    14:00 +37°C° 0 mm 4 m/s 696 mmHg 37%
    15:00 +37°C° 0 mm 5 m/s 695 mmHg 39%
    16:00 +36°C° 0 mm 6 m/s 694 mmHg 40%
    17:00 +36°C° 0 mm 7 m/s 694 mmHg 42%
    18:00 +35°C° 0 mm 6 m/s 694 mmHg 45%
    19:00 +34°C° 0 mm 5 m/s 694 mmHg 48%
    20:00 +33°C° 0 mm 4 m/s 694 mmHg 52%
    21:00 +32°C° 0.1 mm 4 m/s 694 mmHg 55%
    22:00 +30°C° 0.1 mm 5 m/s 694 mmHg 59%
    23:00 +30°C° 0.1 mm 5 m/s 694 mmHg 63%
    Arată mai mult